Location: Biltmore Gardens
(41.6070°N, 83.4666°W)
Time: 14:14:07
(UTC+00:00)

NOSS 3-2 (C) - Pass Details

Date: 14 July 2020
Orbit: 798 x 1415 km, 63.4° (Epoch: 01 August)

Event Time Altitude Azimuth Distance (km) Brightness Sun altitude
Exits shadow 09:19:08 - 202° (SSW) 2,656 5.3 -9.0°
Reaches altitude 10° 09:19:45 10° 201° (SSW) 2,423 5.1 -8.9°
Maximum altitude 09:25:14 65° 120° (ESE) 971 3.7 -8.1°
Drops below altitude 10° 09:31:27 10° 40° (NE) 2,740 7.5 -7.2°
Sets 09:34:15 0° 38° (NE) 3,787 8.4 -6.8°
